Weather Roundup
Issued by NWS Chicago, IL

Home | Current Version | Previous Version | Text Only | Print | Product List | Glossary On
Versions: 1 2 3 4 5 6 7 8 9 10 11 12 13 14 15 16 17 18 19 20 21 22 23 24 25 26 27 28 29 30 31 32 33 34 35 36 37 38 39 40 41 42 43 44 45 46 47 48 49 50
000
NZUS59 KLOT 111311
HRRLOT

CHICAGO AREA WEATHER ROUNDUP
NATIONAL WEATHER SERVICE CHICAGO/ROMEOVILLE IL
700 AM CST SUN DEC 11 2016

NOTE: "FAIR" INDICATES FEW OR NO CLOUDS BELOW 12,000 FEET WITH NO
SIGNIFICANT WEATHER AND/OR OBSTRUCTIONS TO VISIBILITY.

* THESE STATIONS ARE NOT UNDER NWS QUALITY CONTROL. THEY ALSO MAY NOT
  REPORT WEATHER SUCH AS PRECIPITATION OR FOG.

ILZ005-006-012>014-019>023-111400-
NORTHEAST ILLINOIS

CITY           SKY/WX    TMP DP  RH WIND       PRES   REMARKS
OHARE          FLURRIES  26  22  84 SE15      30.02F WCI  14
MIDWAY         LGT SNOW  27  22  81 SE13      30.04F WCI  16
AURORA         CLOUDY    27  22  81 SE13      30.02F WCI  16
LANSING*       LGT SNOW  26  25  96 SE14      30.08F WCI  15
JOLIET*        CLOUDY    29  25  86 SE9G20    30.04F WCI  20
WAUKEGAN       FLURRIES  29  24  82 S13       30.02F WCI  19
DUPAGE AIRPORT CLOUDY    26  21  81 SE15      30.01F WCI  14
WHEELING       CLOUDY    26  22  84 SE14      30.04F WCI  14
KANKAKEE*      MIX PCPN  28  24  84 SE15      30.06F WCI  16
MORRIS*        FLURRIES  29  23  79 SE8       30.01F WCI  21
LEWIS AIRPORT* LGT RAIN  27  26  96 SE13      30.03F WCI  16
NORTHERLY ISL    N/A     28  24  85 S21         N/A  WCI  15
$$

WIZ051-052-058>065-066-070>072-111400-
SOUTHEAST WISCONSIN

CITY           SKY/WX    TMP DP  RH WIND       PRES   REMARKS
MILWAUKEE      LGT SNOW  29  24  82 S12       30.03F WCI  19
KENOSHA*       LGT SNOW  28  24  85 S15       30.03F FOG     WCI  16
RACINE*        LGT SNOW  30  26  85 S12G20    30.04F FOG     WCI  20
BURLINGTON     LGT SNOW  29  28  95 SE8       30.01F WCI  21
WAUKESHA       LGT SNOW  25  19  80 SE6       30.03F WCI  18
WEST BEND      LGT SNOW  27  27 100 CALM      30.03F
$$

INZ001>003-010>013-019-020-111400-
NORTHWEST INDIANA

CITY           SKY/WX    TMP DP  RH WIND       PRES   REMARKS
GARY*          LGT SNOW  28  25  86 SE14      30.08F VSB 1   WCI  17
MICHIGAN CITY* NOT AVBL
RENSSELAER*    NOT AVBL
VALPARAISO     LGT SNOW  27  23  85 MISG      30.09F VSB 3/4
$$

LMZ740>746-111400-
SOUTHERN LAKE MICHIGAN

STATION/POSITION TIME  SKY/WX   TEMP WIND        PRES    VSBY
                                AIR  DIR/SP/G
                 (UTC)          (F)  (DEG/KT/KT) (MB)    (MI)
HARRISON CRIB    NOT AVBL
BURNHAM HARBOR   1300            28  150/ 17/ 19   N/A
CALUMET HARBOR   1248            27  140/ 12/ 19 1017.6F
BURNS HARBOR     1240            26  140/ 13/ 20 1019.6F
MICHIGAN CITY    NOT AVBL
$$

ABBREVIATIONS USED IN REMARKS
   TC - TEMPERATURE IN CELSIUS
  WCI - WIND CHILL INDEX
   HX - HEAT INDEX
  VSB - VISIBILITY
$$




USA.gov is the U.S. government's official web portal to all federal, state and local government web resources and services.